sat.trackr.live / text

‹ back to catalog

METEOR-M2 4

NORAD 59051 · 2024-039A

PAYLOAD ACTIVE UNKNOWN

§ Identity

Operator
Country
CIS
Launch date
2024-02-29
Launch site
VOSTO
Launch vehicle
Mass (kg)
RCS (m²)

Purposes: earth_obs

External: N2YO · Heavens-Above · Gunter

§ Orbital elements

Epoch: 2026-05-25T04:21:27.420768Z

Period
101.24 min
Inclination
98.7000°
Eccentricity
0.0006080
Mean motion
14.22426841 rev/d
Perigee alt
812.8 km
Apogee alt
821.5 km
Semi-major
7,195.3 km
B*
2.4496e-5
RAAN
104.7707°
Arg perigee
231.2887°
Mean anomaly
128.7748°
Rev number
11,599

§ Raw data

METEOR-M2 41 59051U 24039A   26145.18156737  .00000011  00000+0  24496-4 0  99942 59051  98.7000 104.7707 0006080 231.2887 128.7748 14.22426841115993

JSON: /api/v1/satellites/59051 · /tle

For live sub-satellite position, see the globe view (requires WebGL).

§ Visibility from observer

Set your observer location to see the next 7 days of passes ≥ 10°. The values pass through the URL so the page stays shareable.

No JS? Fill the form by hand. The geolocation button needs JavaScript.

§ Radio — SatNOGS DB

ModeDescriptionDownlinkUplink
HRPT HRPT 1.705 GHz
HRPT HRPT 1.700 GHz
FSK LRPT IQ recording usage 137.100 MHz
FSK LRPT IQ recording usage 137.900 MHz
LRPT LRPT S-E RHCP D 72 kbps 137.100 MHz
LRPT LRPT S-E RHCP D 72 kbps 137.900 MHz
LRPT LRPT S-E RHCP D 80 kbps 137.913 MHz
LRPT LRPT S-E RHCP D 80 kbps 137.900 MHz
LRPT LRPT S-E RHCP D 80 kbps 137.100 MHz
BPSK SARSAT L-band 1.545 GHz

10 transmitters · refreshed weekly from db.satnogs.org